Location: Dammartin
(48.9032°N, 1.6195°E)
Time: 12:54:10
(UTC+00:00)

YUBILEINY - Pass Details

Date: 09 December 2023
Orbit: 1479 x 1508 km, 82.5° (Epoch: 02 March)

Event Time Altitude Azimuth Distance (km) Brightness Sun altitude
Rises 22:01:38 0° 342° (NNW) 4,626 ? -56.8°
Reaches altitude 10° 22:05:44 10° 324° (NW) 3,637 ? -57.3°
Enters shadow 22:09:14 16° 301° (WNW) 3,143 ? -57.7°
